Wind_Speed
12 12 12 12 11 10 9 9 9 9 10 10 9 11 13 15 18 21 23 24 25 29 33 38 41 45 48 49 48 49 50 53 55 55 54 53 51 51 51 51 53 53 51 50
9 10 11 10 8 7 7 7 6 5 5 5 3 5 7 9 12 14 16 18 20 24 27 32 34 38 42 45 45 47 49 51 53 53 53 51 51 49 48 50 51 51 51 50
8 9 9 8 7 5 4 4 4 3 3 2 3 2 3 4 6 9 12 14 18 21 24 25 29 34 37 39 42 45 48 49 49 50 51 49 49 48 48 49 50 48 50 52
8 7 6 6 6 5 5 4 3 2 1 1 1 1 1 1 2 4 6 9 13 17 21 22 25 28 33 36 38 41 43 45 46 47 48 49 48 47 46 47 47 48 49 51
6 5 6 6 6 6 5 4 3 3 2 3 3 2 2 0 1 1 3 4 8 13 16 19 22 25 28 31 33 37 40 41 43 43 44 46 45 45 45 46 47 49 49 49
6 6 7 7 6 6 6 4 4 4 5 5 4 3 4 3 1 0 1 2 4 6 10 12 15 18 22 25 28 30 34 37 39 39 41 44 44 45 45 46 47 47 48 47
8 8 7 7 6 6 5 5 5 7 6 5 4 3 3 4 3 2 3 4 5 5 5 6 7 10 14 17 21 24 27 31 34 34 37 40 41 42 42 42 43 44 46 47
8 8 8 7 6 6 6 5 5 5 5 6 5 4 4 4 5 5 4 5 5 5 4 3 4 6 9 12 15 18 20 24 27 28 31 34 38 40 41 41 41 42 43 44
8 8 8 7 6 6 6 6 6 5 6 6 6 6 6 6 7 6 6 6 6 5 4 4 5 5 6 7 10 12 14 18 21 24 26 27 29 32 35 38 39 40 41 43
8 8 8 7 6 6 6 6 6 7 7 8 8 7 6 6 7 7 7 7 6 6 6 6 4 2 2 3 3 6 8 12 16 20 22 23 24 28 31 34 36 37 38 41
7 6 7 7 6 6 7 7 6 6 7 7 7 6 6 6 7 8 7 6 6 6 7 6 5 3 2 2 2 4 6 9 12 15 18 19 20 23 27 30 33 36 38 40
6 6 6 6 6 7 8 7 6 6 6 6 6 7 6 6 7 7 7 7 8 7 6 5 3 3 2 0 1 3 5 7 10 12 14 15 17 20 23 27 30 34 38 41
7 6 6 6 6 7 8 8 7 6 6 6 7 8 7 7 7 7 8 8 8 7 6 6 5 4 3 1 1 2 4 7 9 10 12 14 16 18 22 25 29 33 37 40
7 7 7 7 7 7 8 8 7 7 6 7 7 8 8 7 7 7 7 8 7 6 6 7 6 5 5 4 3 2 3 5 7 10 11 13 16 18 21 25 28 32 35 38
6 7 7 7 8 8 8 8 7 6 5 5 6 6 6 6 7 7 6 6 6 5 5 6 5 5 5 5 4 5 6 7 9 11 13 15 17 20 23 26 28 31 34 36
7 8 8 8 8 7 7 7 7 6 5 4 4 4 4 4 4 5 5 4 4 4 4 4 4 4 5 6 6 7 8 9 11 12 15 18 21 23 25 28 30 32 35 38
6 7 7 7 6 6 7 6 6 5 4 3 3 3 3 3 3 3 3 3 3 4 4 5 6 6 6 8 8 9 11 12 14 16 18 20 22 24 27 30 32 34 35 38
5 6 6 6 6 5 5 5 5 5 4 3 2 1 1 2 2 2 2 3 3 4 5 6 7 8 9 9 10 12 15 16 18 20 22 24 25 26 29 31 33 34 35 37
5 5 5 4 4 4 4 4 4 4 3 3 2 2 2 1 1 1 2 3 4 6 7 8 10 11 13 14 14 15 17 19 20 22 24 26 28 30 31 32 33 34 34 35
5 4 3 3 3 3 4 4 5 5 5 4 4 3 3 3 2 2 3 4 5 7 9 10 11 13 15 16 17 18 20 21 23 25 27 29 31 33 34 35 35 34 34 35
6 5 4 3 3 3 4 4 4 4 4 4 3 3 4 4 4 4 4 5 6 8 10 11 13 15 17 18 20 21 23 24 26 28 30 32 33 35 36 36 36 35 35 35
7 6 6 5 4 3 3 2 3 2 2 2 2 3 4 5 5 5 6 6 8 10 12 14 15 17 18 20 22 24 26 27 29 31 33 35 36 37 37 37 36 36 35 35
8 7 7 6 6 5 4 3 2 1 1 1 2 3 4 5 6 7 8 8 10 12 13 15 17 19 20 22 23 25 27 29 32 34 36 37 37 38 38 38 37 37 37 37
10 9 8 8 8 7 6 5 4 3 3 3 4 4 5 7 8 9 9 10 11 13 15 17 19 21 22 24 26 27 29 31 34 36 37 37 38 39 39 39 38 38 38 38
12 11 11 10 10 10 9 8 7 6 6 6 6 6 7 8 9 11 12 12 14 15 17 19 21 23 25 26 28 29 31 33 35 37 38 38 39 39 39 39 39 39 39 39
14 14 13 12 12 12 11 11 10 10 9 9 9 9 10 11 12 13 14 15 16 18 19 21 23 24 26 28 29 31 33 35 37 38 39 40 40 40 40 39 39 39 39 40
Wind_Direction
242 242 241 241 246 252 253 252 250 253 257 262 262 260 256 253 251 248 244 240 239 235 232 230 230 230 229 228 227 227 228 229 229 229 231 231 232 233 234 236 236 236 237 238
232 232 230 233 241 252 255 247 243 242 255 266 265 263 259 255 254 249 244 241 238 235 231 228 229 229 227 227 227 226 226 227 228 229 231 230 230 233 235 235 235 236 236 237
217 217 221 225 227 232 228 217 215 207 234 270 265 253 248 257 253 240 239 242 241 236 228 226 225 225 223 223 225 226 227 226 226 227 229 228 228 230 233 236 236 237 238 239
205 211 207 199 199 197 190 188 177 172 178 187 204 119 138 266 264 238 233 243 236 230 227 226 224 221 220 223 225 227 227 227 226 226 227 227 229 231 234 236 237 240 241 241
187 191 183 175 177 177 165 152 143 147 139 130 121 110 100 95 205 199 217 242 225 222 224 223 224 224 223 224 225 226 226 225 225 227 228 228 230 232 236 238 239 240 240 241
174 171 165 168 169 168 159 157 150 143 137 140 127 99 84 79 55 42 179 202 196 202 209 213 219 220 222 224 226 227 226 225 225 229 230 230 232 235 236 238 238 240 241 241
155 155 156 159 155 159 151 140 133 131 129 132 125 119 90 65 75 102 125 126 137 158 171 188 202 209 213 218 220 221 221 225 226 227 228 229 231 233 235 238 240 241 242 242
147 151 153 154 153 150 146 141 127 128 130 125 118 107 93 81 88 108 108 98 100 122 142 165 179 184 197 207 208 209 216 219 222 225 226 228 233 236 237 239 240 241 240 242
144 147 148 152 154 152 150 144 128 119 117 116 106 98 87 88 93 110 112 106 102 105 118 143 157 162 174 195 203 209 218 221 227 226 229 232 234 234 237 238 239 242 243 245
141 144 148 153 151 149 144 142 130 118 112 112 108 103 99 97 99 106 112 115 118 121 129 131 142 150 156 189 217 223 220 224 228 229 231 234 237 239 243 243 243 244 247 248
142 146 148 152 150 151 153 152 143 127 117 116 113 105 100 98 102 106 110 111 110 115 120 126 127 125 127 158 216 227 225 230 234 234 234 239 242 245 247 248 248 248 248 249
137 135 135 141 145 153 155 154 148 134 119 114 109 103 107 102 101 98 100 102 106 108 106 100 96 96 109 145 244 221 231 236 237 240 240 242 248 251 253 252 254 254 253 252
131 129 127 131 135 144 152 149 141 129 120 118 108 102 103 103 100 95 95 100 101 101 89 84 83 91 90 81 231 244 261 254 254 254 254 260 265 265 263 260 261 260 258 256
126 123 121 118 119 129 139 142 136 123 115 115 109 105 104 97 94 95 97 99 96 91 82 83 80 71 62 51 29 334 311 294 278 267 268 274 274 273 272 269 268 267 264 262
123 123 123 120 120 124 131 141 141 130 119 111 110 105 101 98 99 98 96 90 88 96 87 81 71 57 50 33 9 345 335 321 304 286 279 282 285 282 280 280 278 274 269 266
124 123 121 117 121 124 129 136 142 140 126 113 110 107 103 101 95 94 94 88 81 81 73 61 47 40 26 7 355 340 328 321 316 308 300 295 291 290 287 286 284 280 275 271
129 128 128 126 127 123 128 135 137 136 132 124 121 114 110 104 91 82 71 78 71 59 38 20 7 3 2 354 345 337 327 319 313 310 308 307 303 299 294 289 286 283 279 274
140 136 134 135 132 131 123 131 138 138 134 131 133 118 113 105 91 74 59 40 16 4 357 356 353 347 343 342 337 332 325 320 315 312 311 310 308 306 304 298 292 287 282 278
155 147 141 137 135 128 126 131 142 144 131 116 104 88 74 76 73 60 16 360 352 348 346 345 345 343 340 337 332 329 326 323 319 315 312 310 309 308 307 304 300 294 289 283
174 173 170 161 149 133 124 119 116 116 113 105 98 83 58 44 34 11 359 354 351 348 345 344 341 340 340 338 334 328 322 318 316 315 313 311 310 309 307 306 304 299 294 288
199 204 202 194 177 146 133 126 120 115 108 96 79 60 39 25 15 7 3 356 350 347 344 340 338 336 334 332 330 324 320 317 316 315 314 313 311 311 309 307 304 300 297 293
211 214 211 206 198 185 172 153 139 126 106 78 44 27 20 14 4 353 347 341 337 336 335 333 331 331 330 328 326 324 322 319 317 316 315 314 313 313 311 308 304 301 298 297
217 218 218 216 214 211 211 210 202 220 281 318 333 343 352 354 351 342 333 327 325 325 326 326 327 327 328 327 326 325 323 322 320 318 317 316 315 314 312 310 306 303 299 298
222 225 228 227 227 227 229 233 239 258 273 288 306 317 323 331 334 333 328 324 321 320 320 322 323 324 324 324 324 324 322 320 320 319 317 317 315 314 313 311 308 305 302 299
227 230 232 232 233 234 235 240 248 257 266 278 292 304 311 316 321 324 325 323 320 320 320 320 321 321 321 321 321 321 321 320 319 319 318 317 316 315 313 311 308 306 304 302
232 234 234 236 237 241 243 248 253 259 265 273 283 294 302 307 311 315 317 318 317 317 318 319 321 321 321 321 320 320 321 321 320 319 319 318 316 315 313 311 309 307 305 303
Height
5638 5640 5641 5641 5641 5642 5641 5641 5641 5641 5640 5640 5639 5639 5638 5637 5638 5639 5640 5642 5645 5648 5652 5657 5662 5668 5674 5680 5687 5695 5702 5709 5716 5722 5728 5734 5739 5744 5750 5755 5760 5764 5768 5772
5636 5637 5638 5638 5639 5639 5639 5639 5639 5639 5638 5637 5637 5636 5635 5634 5634 5634 5635 5637 5639 5642 5645 5649 5654 5659 5665 5671 5678 5684 5691 5698 5705 5712 5718 5724 5729 5735 5740 5745 5750 5754 5758 5762
5634 5636 5636 5636 5637 5637 5637 5637 5637 5637 5636 5635 5635 5635 5634 5632 5631 5631 5631 5632 5634 5636 5639 5643 5647 5652 5657 5663 5669 5675 5681 5688 5695 5702 5709 5714 5720 5726 5731 5736 5740 5745 5748 5751
5632 5633 5634 5635 5635 5635 5636 5636 5636 5635 5635 5635 5634 5633 5633 5630 5629 5629 5629 5629 5630 5632 5635 5638 5642 5647 5652 5657 5662 5667 5673 5679 5686 5692 5698 5705 5711 5716 5722 5727 5731 5735 5738 5741
5631 5632 5633 5634 5634 5635 5635 5635 5635 5635 5634 5634 5634 5633 5633 5630 5629 5629 5628 5628 5628 5630 5632 5635 5638 5642 5647 5651 5656 5661 5666 5671 5678 5684 5690 5696 5701 5707 5712 5716 5721 5725 5728 5731
5631 5631 5632 5633 5634 5635 5635 5635 5635 5634 5634 5635 5634 5633 5632 5630 5629 5629 5628 5627 5627 5629 5630 5632 5635 5638 5642 5646 5650 5654 5659 5664 5670 5676 5681 5687 5693 5698 5703 5707 5711 5715 5719 5722
5631 5632 5632 5633 5634 5635 5635 5636 5636 5635 5635 5635 5634 5633 5633 5631 5630 5629 5629 5628 5629 5629 5630 5632 5633 5635 5638 5642 5645 5649 5654 5658 5664 5669 5673 5679 5685 5689 5694 5698 5702 5706 5708 5712
5631 5633 5633 5634 5634 5634 5635 5636 5637 5636 5635 5635 5634 5633 5634 5632 5631 5630 5629 5629 5630 5630 5631 5632 5633 5635 5637 5640 5643 5646 5650 5654 5658 5663 5667 5672 5677 5681 5685 5689 5692 5696 5699 5701
5632 5633 5633 5634 5634 5635 5635 5636 5637 5637 5636 5636 5635 5635 5634 5633 5632 5631 5631 5631 5631 5632 5632 5633 5634 5636 5637 5639 5641 5644 5647 5651 5654 5658 5662 5666 5668 5672 5676 5679 5682 5686 5689 5691
5633 5634 5634 5634 5635 5636 5636 5637 5637 5637 5637 5636 5636 5636 5636 5634 5633 5633 5633 5633 5633 5633 5633 5634 5635 5636 5637 5638 5640 5642 5645 5648 5650 5653 5657 5660 5662 5665 5668 5670 5673 5676 5679 5682
5633 5634 5635 5635 5635 5636 5637 5638 5637 5638 5638 5638 5637 5639 5636 5635 5634 5634 5634 5634 5634 5634 5634 5635 5635 5636 5636 5638 5639 5641 5643 5645 5647 5650 5652 5655 5657 5659 5661 5663 5665 5667 5669 5672
5634 5635 5635 5635 5636 5636 5637 5637 5638 5639 5639 5639 5638 5642 5637 5636 5635 5635 5635 5635 5635 5635 5635 5635 5635 5635 5636 5637 5638 5639 5640 5642 5643 5645 5647 5650 5652 5653 5654 5656 5657 5658 5660 5661
5635 5636 5636 5636 5638 5637 5637 5637 5638 5639 5639 5639 5639 5642 5638 5638 5637 5636 5636 5636 5636 5636 5636 5636 5635 5635 5636 5636 5637 5637 5638 5639 5640 5641 5643 5645 5646 5647 5647 5648 5648 5648 5649 5650
5636 5637 5638 5638 5637 5637 5637 5638 5639 5640 5640 5640 5640 5640 5639 5638 5638 5638 5637 5637 5637 5636 5636 5636 5635 5635 5635 5635 5636 5637 5637 5637 5637 5637 5639 5640 5640 5640 5640 5639 5639 5639 5638 5638
5637 5638 5638 5638 5638 5638 5638 5639 5640 5640 5641 5641 5641 5640 5640 5639 5639 5639 5638 5638 5638 5637 5637 5636 5636 5636 5635 5635 5634 5634 5634 5633 5633 5633 5634 5634 5633 5633 5632 5630 5629 5627 5626 5626
5638 5639 5639 5639 5639 5639 5640 5640 5640 5640 5641 5641 5641 5641 5640 5640 5639 5639 5639 5638 5638 5638 5637 5637 5637 5636 5635 5634 5633 5632 5631 5630 5630 5629 5628 5627 5626 5625 5623 5620 5618 5616 5615 5613
5639 5640 5640 5640 5640 5640 5641 5641 5641 5641 5641 5641 5641 5641 5640 5640 5639 5639 5638 5638 5638 5637 5637 5636 5635 5634 5633 5632 5631 5629 5628 5627 5626 5624 5623 5621 5619 5617 5614 5611 5608 5605 5603 5601
5641 5641 5641 5641 5642 5641 5644 5641 5641 5641 5641 5641 5640 5640 5639 5639 5638 5638 5637 5637 5636 5636 5635 5635 5633 5632 5631 5629 5628 5626 5624 5622 5620 5618 5616 5614 5611 5608 5605 5601 5597 5594 5591 5588
5642 5642 5642 5642 5641 5642 5642 5641 5640 5641 5641 5640 5640 5639 5638 5638 5637 5637 5636 5636 5635 5634 5633 5632 5631 5629 5627 5625 5623 5621 5619 5617 5615 5613 5610 5607 5604 5600 5596 5591 5587 5583 5579 5576
5642 5642 5643 5642 5642 5642 5643 5642 5640 5641 5641 5640 5639 5639 5638 5637 5637 5637 5635 5634 5633 5632 5631 5630 5629 5627 5625 5623 5620 5618 5615 5613 5610 5607 5603 5600 5596 5592 5587 5582 5577 5572 5568 5564
5642 5642 5642 5642 5642 5642 5642 5641 5641 5642 5643 5640 5639 5639 5638 5636 5636 5635 5633 5633 5632 5631 5629 5628 5626 5624 5622 5619 5617 5614 5611 5607 5604 5600 5596 5592 5587 5582 5576 5571 5566 5561 5557 5553
5641 5641 5641 5641 5642 5644 5642 5641 5641 5642 5640 5639 5639 5638 5637 5636 5634 5633 5632 5631 5630 5628 5627 5625 5623 5621 5618 5615 5612 5609 5605 5601 5597 5592 5588 5583 5577 5572 5566 5561 5556 5551 5547 5543
5640 5640 5640 5641 5643 5642 5641 5640 5640 5640 5639 5638 5638 5637 5636 5635 5633 5632 5630 5629 5627 5626 5624 5622 5619 5617 5614 5610 5607 5603 5599 5594 5589 5584 5579 5574 5568 5562 5556 5551 5546 5542 5537 5533
5638 5638 5639 5639 5640 5640 5639 5639 5639 5638 5637 5637 5636 5635 5634 5633 5632 5630 5628 5626 5624 5622 5620 5618 5615 5612 5608 5605 5601 5597 5592 5587 5582 5577 5571 5565 5559 5553 5547 5541 5536 5531 5526 5522
5635 5635 5635 5636 5637 5637 5637 5637 5637 5636 5635 5635 5634 5633 5632 5631 5629 5627 5625 5623 5621 5619 5616 5613 5610 5607 5603 5599 5595 5590 5585 5580 5575 5569 5563 5556 5550 5544 5538 5532 5526 5521 5516 5510
5631 5632 5632 5633 5633 5634 5634 5634 5634 5633 5633 5632 5631 5630 5629 5628 5626 5624 5622 5619 5617 5614 5611 5608 5605 5601 5597 5593 5588 5583 5578 5573 5567 5561 5554 5548 5541 5535 5529 5523 5517 5510 5505 5499